Location: Baller�as
(41.9020°N, 0.1554°W)
Time: 23:56:39
(UTC+00:00)

Terra - Pass Details

Date: 10 August 2020
Orbit: 701 x 703 km, 98.2° (Epoch: 22 September)

Event Time Altitude Azimuth Distance (km) Brightness Sun altitude
Exits shadow 23:26:28 13° 279° (W) 1,984 4.3 -32.2°
Drops below altitude 10° 23:28:01 10° 298° (WNW) 2,176 4.8 -32.2°
Sets 23:31:33 0° 326° (NW) 3,101 6.0 -32.4°
